[[{"header":{"parameterUnit":"m.s-1","parameterCategory":1,"la1":30.2991,"la2":30.254,"lo1":-89.0895,"lo2":-89.0444,"dy":0.0017,"dx":0.0017,"nx":28,"ny":28,"refTime":"2026-02-18T03:00:00:Z","depth":0,"parameterNumber":2,"parameterNumberName":"U-component_of_WINDS"},"data":[0,0,0,0,0,0,0,0,0,0,0,0,0,0,0,0,0,0,0,0,0,0,0,0,0,0,0,0,0,0,0,0,0,0,0,0,0,0,0,0,0,0,0,0,0,0,0,0,0,0,0,0,0,0,0,0,0,0,0.139,0.139,0,0.1352,0.1351,0.1351,0.1342,0.1342,0.1342,0.1343,0.1306,0.1305,0.1303,0,0,0,0,0,0,0,0,0,0,0,0,0,0.1463,0.1462,0.139,0.139,0.1389,0.1352,0.1351,0.1351,0.1342,0.1342,0.1343,0.1343,0.1306,0.1305,0.1303,0,0,0,0,0,0,0,0,0,0,0,0,0,0.1429,0.1461,0.139,0.138,0.1379,0.1352,0.1351,0.135,0.1342,0.1342,0.1343,0.1343,0.1307,0.1305,0.1303,0.1284,0,0,0.1298,0.1297,0,0,0,0,0,0,0,0,0.1431,0.1426,0.1382,0.1381,0.138,0.1352,0.1363,0.1328,0.1342,0.1356,0.1343,0.1343,0.1321,0.1318,0.131,0.1282,0.1281,0.1297,0.1296,0.1295,0.1295,0,0,0,0,0,0,0,0.1433,0.1428,0.1375,0.1382,0.138,0.138,0.1375,0.1357,0.1337,0.1355,0.1354,0.135,0.132,0.1312,0.1309,0.128,0.1297,0.1296,0.1295,0.1294,0.124,0.1239,0,0,0,0,0,0,0.1436,0.143,0.1376,0.1374,0.1406,0.1378,0.1373,0.136,0.1337,0.1334,0.1349,0.1349,0.1315,0.1311,0.1308,0.1286,0.1295,0.1294,0.1293,0.124,0.124,0.1239,0,0,0,0,0,0,0.1438,0.1432,0.1378,0.1402,0.1395,0.1377,0.1362,0.1359,0.1351,0.1333,0.133,0.1344,0.1315,0.131,0.1291,0.1285,0.1293,0.1291,0.124,0.124,0.1239,0.1242,0,0,0,0,0,0,0.144,0.1432,0.1423,0.1401,0.1393,0.1359,0.1362,0.1358,0.1347,0.1347,0.1327,0.1324,0.1315,0.1294,0.1289,0.1283,0.129,0.1241,0.124,0.124,0.1242,0.1241,0.1241,0,0,0,0,0,0.1443,0.1425,0.1422,0.1416,0.1381,0.1359,0.1355,0.1344,0.1347,0.1339,0.1328,0.1324,0.1287,0.1292,0.1286,0.1279,0.1241,0.124,0.124,0.1242,0.1242,0.1241,0,0,0,0,0,0,0.1445,0.1421,0.1419,0.1393,0.1378,0.1358,0.1346,0.1343,0.1327,0.1328,0.1317,0.1312,0.1294,0.1285,0.1291,0.1262,0.1264,0.1262,0.1268,0.1267,0.1267,0.1269,0.1288,0,0,0,0,0,0.1443,0.1426,0.1406,0.1386,0.1378,0.1364,0.1354,0.1347,0.1332,0.1326,0.1313,0.13,0.1286,0.1276,0.1261,0.1241,0.1239,0.1234,0.1234,0.1233,0.1232,0.1225,0.1223,0.1237,0.1237,0.1237,0,0,0.1438,0.1423,0.1412,0.1386,0.1374,0.1358,0.1359,0.1341,0.1331,0.1324,0.1305,0.1296,0.128,0.1261,0.1252,0.1253,0.1228,0.1232,0.1232,0.1231,0.1224,0.1222,0.1221,0.1236,0.1236,0.1236,0,0,0.142,0.1406,0.1389,0.1378,0.136,0.1351,0.1347,0.1328,0.1322,0.1303,0.1299,0.1287,0.1261,0.1252,0.1243,0.1228,0.1226,0.1224,0.122,0.1213,0.1212,0.1212,0.1208,0.1207,0.1223,0.1223,0.1223,0,0.1416,0.1391,0.1381,0.1365,0.1355,0.1349,0.1334,0.1323,0.1302,0.1296,0.1298,0.1268,0.1257,0.1237,0.1234,0.1227,0.1225,0.1226,0.1213,0.1212,0.1211,0.1208,0.1207,0.1223,0.1223,0.1223,0.1223,0,0.1388,0.1372,0.1361,0.1341,0.133,0.1314,0.1304,0.1295,0.1291,0.1283,0.1266,0.1253,0.1238,0.1233,0.1228,0.1214,0.1216,0.1215,0.1217,0.121,0.1207,0.1206,0.1223,0.1223,0.1223,0.1223,0,0,0.1368,0.1346,0.1342,0.1335,0.1318,0.1306,0.1292,0.1277,0.127,0.1257,0.1247,0.1228,0.1228,0.1219,0.1214,0.1208,0.12,0.1209,0.1208,0.1209,0.1188,0.1189,0.1187,0.1199,0.1199,0.1199,0.119,0,0.135,0.1323,0.1316,0.1295,0.1282,0.1278,0.1267,0.1256,0.125,0.1239,0.1233,0.122,0.1221,0.1216,0.121,0.1202,0.1196,0.1203,0.1191,0.1191,0.1195,0.1185,0.1185,0.1177,0.1188,0.1188,0.1188,0,0.1324,0.1312,0.1289,0.1277,0.1271,0.1261,0.1249,0.1238,0.1228,0.1224,0.1216,0.1212,0.1201,0.1205,0.119,0.1195,0.1191,0.1187,0.1187,0.1185,0.1189,0.1185,0.1174,0.1173,0.1185,0.1186,0.1186,0,0.1314,0.1292,0.1277,0.1271,0.1256,0.1249,0.1243,0.1233,0.1226,0.1216,0.1212,0.1201,0.1195,0.1188,0.1183,0.1186,0.117,0.1172,0.1168,0.1169,0.1164,0.1165,0.1154,0.1161,0.1161,0.1161,0.1161,0,0.1295,0.1282,0.1273,0.1263,0.125,0.1244,0.1231,0.1225,0.1217,0.1208,0.1205,0.1197,0.1191,0.1183,0.1179,0.117,0.1167,0.1165,0.1164,0.1165,0.1166,0.1162,0.1163,0.116,0.1161,0.1161,0.1161,0,0.1281,0.1274,0.1258,0.1246,0.1243,0.1234,0.1226,0.1218,0.1213,0.1202,0.12,0.1192,0.1183,0.1178,0.1166,0.1164,0.1154,0.1153,0.1157,0.1157,0.1154,0.1155,0.114,0.1139,0.1146,0.1146,0.1146,0,0.1269,0.1259,0.1248,0.1242,0.1236,0.1226,0.122,0.1215,0.1208,0.1198,0.1193,0.1184,0.1176,0.1162,0.1157,0.1149,0.1149,0.1144,0.1147,0.115,0.1151,0.1151,0.1152,0.1144,0.1144,0.1144,0.1144,0,0.125,0.1248,0.1238,0.1229,0.1221,0.1213,0.1206,0.1201,0.1196,0.1189,0.118,0.1175,0.1164,0.1157,0.1149,0.1145,0.1144,0.1143,0.1142,0.1143,0.1147,0.1146,0.1157,0.1143,0.1143,0.1143,0.1143,0.1143,0.1237,0.123,0.1222,0.1213,0.1207,0.1201,0.1194,0.119,0.1182,0.1173,0.1171,0.1163,0.1157,0.1147,0.1143,0.1138,0.1138,0.1136,0.1136,0.1135,0.1136,0.1148,0.1136,0.1136,0.1136,0.1136,0.1136,0,0.122,0.1215,0.1207,0.1197,0.1191,0.1191,0.1184,0.1179,0.1171,0.1166,0.1159,0.1151,0.1145,0.114,0.1134,0.1131,0.1131,0.113,0.113,0.113,0.1135,0.1137,0.113,0.113,0.113,0.113,0.113,0.113,0.1209,0.1198,0.1196,0.1184,0.118,0.1171,0.1167,0.1163,0.1159,0.115,0.1145,0.1142,0.1138,0.1132,0.1127,0.1126,0.1125,0.1124,0.1123,0.1128,0.1129,0.1129,0.1131,0.1123,0.1123,0.1118,0.1118,0.1118]},{"header":{"parameterUnit":"m.s-1","parameterCategory":1,"la1":30.2991,"la2":30.254,"lo1":-89.0895,"lo2":-89.0444,"dy":0.0017,"dx":0.0017,"nx":28,"ny":28,"refTime":"2026-02-18T03:00:00:Z","depth":0,"parameterNumber":3,"parameterNumberName":"V-component_of_WINDS"},"data":[0,0,0,0,0,0,0,0,0,0,0,0,0,0,0,0,0,0,0,0,0,0,0,0,0,0,0,0,0,0,0,0,0,0,0,0,0,0,0,0,0,0,0,0,0,0,0,0,0,0,0,0,0,0,0,0,0,0,4.0451,4.0451,0,4.0474,4.0474,4.0475,4.0473,4.0473,4.0472,4.0472,4.0495,4.0496,4.0497,0,0,0,0,0,0,0,0,0,0,0,0,0,4.0407,4.0408,4.0451,4.0451,4.0452,4.0474,4.0474,4.0475,4.0473,4.0473,4.0472,4.0472,4.0494,4.0496,4.0497,0,0,0,0,0,0,0,0,0,0,0,0,0,4.0428,4.0409,4.0451,4.0453,4.0454,4.0474,4.0475,4.0475,4.0473,4.0473,4.0472,4.0472,4.0494,4.0495,4.0497,4.0516,0,0,4.0501,4.0502,0,0,0,0,0,0,0,0,4.0427,4.043,4.0453,4.0453,4.0454,4.047,4.0468,4.0489,4.0473,4.0466,4.0472,4.0471,4.0487,4.0489,4.0494,4.0517,4.0518,4.0501,4.0502,4.0503,4.0503,0,0,0,0,0,0,0,4.0425,4.0429,4.046,4.0453,4.0454,4.0454,4.0457,4.0472,4.0479,4.0466,4.0466,4.0469,4.0487,4.0493,4.0495,4.0518,4.0501,4.0502,4.0503,4.0504,4.0562,4.0563,0,0,0,0,0,0,4.0423,4.0427,4.0459,4.0461,4.0439,4.0455,4.0458,4.0465,4.0479,4.048,4.047,4.0469,4.0491,4.0493,4.0496,4.0522,4.0503,4.0504,4.0505,4.0561,4.0562,4.0563,0,0,0,0,0,0,4.0422,4.0426,4.0458,4.0444,4.0448,4.0457,4.0465,4.0466,4.0472,4.0481,4.0483,4.0474,4.0491,4.0494,4.0512,4.0522,4.0505,4.0506,4.0561,4.0562,4.0563,4.0572,0,0,0,0,0,0,4.0421,4.0426,4.0432,4.0444,4.0449,4.0474,4.0466,4.0467,4.0475,4.0474,4.0486,4.0487,4.049,4.051,4.0513,4.0524,4.0507,4.056,4.0561,4.0562,4.0571,4.0573,4.0576,0,0,0,0,0,4.042,4.0433,4.0432,4.0436,4.0457,4.0474,4.0477,4.048,4.0475,4.0483,4.0489,4.0487,4.0521,4.0512,4.0516,4.0527,4.0559,4.0561,4.0562,4.057,4.0573,4.0575,0,0,0,0,0,0,4.042,4.0434,4.0434,4.0451,4.0462,4.0474,4.0483,4.0483,4.0494,4.0493,4.0497,4.05,4.0519,4.0525,4.0514,4.0548,4.0539,4.0542,4.0544,4.0547,4.0549,4.0548,4.0508,0,0,0,0,0,4.0422,4.0435,4.0446,4.0461,4.0466,4.0474,4.0481,4.0484,4.0494,4.0498,4.0506,4.0517,4.053,4.0539,4.0551,4.0572,4.0576,4.0582,4.0584,4.0586,4.0588,4.0604,4.0607,4.0568,4.0568,4.0568,0,0,4.0426,4.0436,4.0443,4.0461,4.0469,4.0483,4.0477,4.0491,4.0502,4.05,4.0519,4.0525,4.0538,4.0558,4.0568,4.0563,4.06,4.0588,4.0589,4.0591,4.0606,4.0609,4.0613,4.0569,4.0569,4.0569,0,0,4.0442,4.0449,4.0464,4.0473,4.0487,4.0493,4.0497,4.051,4.0514,4.0533,4.0534,4.0547,4.0569,4.0579,4.0587,4.0612,4.0611,4.0616,4.0628,4.0643,4.0646,4.0648,4.066,4.0664,4.0618,4.0618,4.0618,0,4.0445,4.0466,4.0471,4.0487,4.0496,4.0497,4.0513,4.0522,4.0539,4.0546,4.0541,4.0572,4.058,4.0605,4.0611,4.0617,4.0623,4.0614,4.0645,4.0648,4.065,4.0662,4.0666,4.0618,4.0618,4.0618,4.0618,0,4.0471,4.0486,4.0496,4.0515,4.0525,4.054,4.055,4.056,4.0562,4.0569,4.0591,4.0601,4.0618,4.0624,4.0625,4.065,4.0648,4.0644,4.0635,4.0655,4.0665,4.0669,4.0619,4.0619,4.0619,4.0619,0,0,4.0484,4.0509,4.0513,4.0523,4.0541,4.0552,4.057,4.0587,4.0597,4.061,4.0626,4.0647,4.0645,4.0654,4.0657,4.067,4.0693,4.0665,4.0666,4.0672,4.0725,4.0729,4.0734,4.0693,4.0694,4.0694,4.0725,0,4.0503,4.0534,4.0541,4.0568,4.0584,4.0588,4.0603,4.0616,4.0624,4.0639,4.0648,4.0664,4.0659,4.0665,4.0678,4.0687,4.0704,4.0685,4.0709,4.071,4.0707,4.0739,4.0742,4.077,4.0729,4.073,4.073,0,4.0528,4.0544,4.0573,4.0593,4.06,4.0613,4.0633,4.0646,4.0663,4.0668,4.0681,4.0684,4.0704,4.0695,4.0724,4.0711,4.0722,4.0728,4.073,4.0733,4.0722,4.0745,4.0779,4.0784,4.0736,4.0736,4.0735,0,4.0538,4.0566,4.0589,4.0597,4.062,4.063,4.064,4.0656,4.0668,4.0685,4.0693,4.0711,4.0722,4.0737,4.0746,4.0738,4.0776,4.0766,4.0782,4.0782,4.079,4.0789,4.0828,4.0794,4.0794,4.0794,4.0794,0,4.0559,4.0577,4.0594,4.0608,4.0629,4.0639,4.066,4.067,4.0686,4.0703,4.0707,4.0722,4.0733,4.0751,4.0758,4.0783,4.0787,4.0793,4.0795,4.0794,4.0793,4.0801,4.08,4.0795,4.0795,4.0795,4.0794,0,4.0572,4.0584,4.061,4.0631,4.0637,4.0652,4.0671,4.0685,4.0695,4.0717,4.0722,4.0738,4.076,4.0771,4.0796,4.0802,4.0831,4.0831,4.0826,4.0827,4.0843,4.0843,4.089,4.0898,4.0857,4.0857,4.0857,0,4.0585,4.0599,4.0624,4.0636,4.0647,4.0666,4.068,4.0691,4.0705,4.0727,4.074,4.0763,4.0781,4.0816,4.083,4.0851,4.0853,4.0868,4.0856,4.0856,4.0856,4.0856,4.0859,4.087,4.0871,4.0871,4.0871,0,4.0607,4.0614,4.0632,4.0655,4.0671,4.0689,4.0707,4.0717,4.0731,4.0747,4.0771,4.0786,4.0815,4.0838,4.0862,4.0873,4.0876,4.0875,4.0881,4.088,4.0877,4.0882,4.0834,4.0874,4.0874,4.0873,4.0873,4.0873,4.0622,4.0637,4.0658,4.068,4.0695,4.0713,4.0729,4.0743,4.0763,4.0789,4.0794,4.082,4.0841,4.0873,4.0885,4.0906,4.0903,4.091,4.0912,4.0914,4.0916,4.0874,4.091,4.091,4.091,4.091,4.091,0,4.0646,4.0661,4.0681,4.0708,4.0727,4.0729,4.075,4.0766,4.0789,4.0808,4.0828,4.0857,4.0881,4.0899,4.0924,4.0938,4.094,4.0944,4.0943,4.0947,4.0916,4.091,4.0942,4.0942,4.0942,4.0942,4.0942,4.0942,4.066,4.0687,4.0697,4.0733,4.0748,4.0775,4.0787,4.0805,4.0821,4.0854,4.0875,4.0887,4.0906,4.0933,4.0956,4.0961,4.0971,4.0976,4.0981,4.0952,4.0948,4.0945,4.094,4.0977,4.0977,4.101,4.101,4.101]}]]